Location: Gisborne
(38.6530°S, 178.0040°E)
Time: 14:28:54
(UTC+12:00)

NOSS 2-1 (E) - Pass Details

Date: 24 January 2019
Orbit: 478 x 1727 km, 63.3° (Epoch: 24 March)

Event Time Altitude Azimuth Distance (km) Brightness Sun altitude
Rises 22:49:08 0° 214° (SW) 4,371 9.4 -22.2°
Reaches altitude 10° 22:52:23 10° 214° (SSW) 3,200 8.3 -22.6°
Maximum altitude 22:59:55 89° 298° (WNW) 960 4.4 -23.5°
Enters shadow 23:01:24 54° 30° (NNE) 1,084 4.3 -23.6°
